Preview of NWS' New Version of Forecast
This preview is not operational and should not be used for support decisions.

Regional Weather Roundup (RWR)

Issued by Gray - Portland, ME (GYX)

                            
000
ASUS41 KGYX 181105
RWRGYX
WEATHER ROUNDUP FOR MAINE AND NEW HAMPSHIRE
NATIONAL WEATHER SERVICE GRAY ME
700 AM EDT MON JUN 18 2018

MEZ002-005-006-010-012-015-018-020-021-024-026-027-029-181200-
MAINE
  
CITY           SKY/WX    TMP DP  RH WIND       PRES   REMARKS
PORTLAND       CLOUDY    59  56  89 CALM      29.91F                  
SANFORD        FAIR      62  57  83 SW7       29.92F                  
BAR HARBOR     LGT RAIN  57  55  93 SW9       29.91F                  
WISCASSET      FAIR      56  56 100 VRB3      29.92F                  
ROCKLAND       LGT RAIN  56  55  97 W3        29.92F                  
FRYEBURG       FAIR      60  58  92 CALM      29.91F                  
LEWISTONAUBURN FAIR      56  54  93 S3        29.91F                  
AUGUSTA        PTSUNNY   55  54  96 S6        29.91R                  
WATERVILLE     LGT RAIN  54  54 100 S5        29.88S FOG              
BANGOR         LGT RAIN  56  55  97 S8        29.89F                  
GREENVILLE       N/A     54  53  97 E5        29.84F                  
MILLINOCKET    LGT RAIN  54  51  90 VRB6      29.87F                  
HOULTON        LGT RAIN  54  52  93 S7        29.84F                  
PRESQUE ISLE   RAIN      53  51  93 SE8       29.81F FOG              
FRENCHVILLE    LGT RAIN  55  51  86 S10       29.76F                  
CARIBOU        LGT RAIN  53  51  93 S13       29.79F                  
$$

NHZ002-005-008-009-011-012-014-181200-
NEW HAMPSHIRE
  
CITY           SKY/WX    TMP DP  RH WIND       PRES   REMARKS
ROCHESTER      FAIR      62  58  86 CALM      29.91F                  
NASHUA         FAIR      70  59  68 CALM      29.95F                  
MANCHESTER     PTSUNNY   71  56  58 S8        29.92F                  
CONCORD        FAIR      66  58  75 CALM      29.93F                  
LACONIA        FAIR      66  58  75 SW6       29.93F                  
PLYMOUTH         N/A     61  56  86 CALM      29.94R                  
BERLIN         PTSUNNY   62  60  93 CALM      29.92S                  
WHITEFIELD     FAIR      64  58  80 CALM      29.91F HAZE             
JAFFREY        FAIR      66  57  72 SW7       29.99F                  
KEENE          FAIR      64  59  83 CALM      29.97F                  
LEBANON        FAIR      70  57  63 SW3       29.92S                  
MT WASHINGTON  FOG       54  54 100 W47G58      N/A  VSB 1/8          
$$

VTZ005-007-008-181200-
VERMONT
  
CITY           SKY/WX    TMP DP  RH WIND       PRES   REMARKS
ST JOHNSBURY     N/A     67  56  67 MISG      29.88S                  
MONTPELIER     FAIR      68  59  73 CALM      29.94R                  
BURLINGTON     PTSUNNY   76  59  55 S13G22    29.85S                  
$$

MAZ007-012-024-CTZ003-RIZ002-NYZ038-NYZ072-181200-
SOUTHERN NEW ENGLAND AND NY
  
CITY           SKY/WX    TMP DP  RH WIND       PRES   REMARKS
BOSTON         PTSUNNY   69  58  67 SW17      29.96F                  
WORCESTER      FAIR      67  58  72 SW13      30.01S                  
NANTUCKET      FAIR      63  60  90 SW10      30.06F                  
PROVIDENCE     PTSUNNY   68  63  84 S8        30.02F                  
HARTFORD       PTSUNNY   69  60  73 S7        29.99F                  
ALBANY         PTSUNNY   72  59  63 S9        29.95F                  
NEW YORK CITY  PTSUNNY   75  65  70 S8        30.03F                  
$$

ANZ081-ANZ082-ANZ150-NHZ014-MEZ023>029-181200-
COASTAL MARINE OBSERVATIONS
  
STATION/POSITION TIME  TEMP    WIND        PRES    WAVE
                       AIR SEA DIR/SP/G            HT/PER
                 (UTC) (F)     (DEG/KT/KT) (MB)    (FT/S)
MOUNT DESERT ROC 1100   56     180/ 18/ 18 1013.6F
MATINICUS ROCK   1000   57     210/ 18/ 19 1013.4F
ISLE OF SHOALS   1000   65     220/ 17/ 17 1013.3F
JEFFREYS LEDGE   1036      58                N/A     2/ 4
$$

.............KEY..............
   WCI - WIND CHILL
   TC  - TEMPERATURE IN CELSIUS
   VSB - VISIBILITY IN MILES
   HX  - HEAT INDEX
   FAIR- INDICATES FEW OR NO CLOUDS BELOW 12,000 FT, WITH NO 
         SIGNIFICANT WEATHER AND/OR OBSTRUCTIONS TO VISIBILITY.